Change the Weather History Date:

Thursday, July 25, 2013

  Actual Average Record
Temperature  
Mean Temperature 32 °F -  
Max Temperature 32 °F - - ()
Min Temperature 31 °F - - ()
Degree Days  
Heating Degree Days 34    
Moisture  
Dew Point 32 °F    
Average Humidity 98    
Maximum Humidity 100    
Minimum Humidity 93    
Precipitation  
Precipitation 0.03 in - - ()
Sea Level Pressure  
Sea Level Pressure 29.41 in    
Wind  
Wind Speed 20 mph ()    
Max Wind Speed 29 mph    
Max Gust Speed 34 mph    
T = Trace of Precipitation, MM = Missing Value Source: Averaged Metar Reports

Daily Weather History Graph

Daily Weather History Graph

Search for Another Location

Airport or City:

Trip Planner

Search our weather history database for the weather conditions in past years. The results will help you decide how hot, cold, wet, or windy it might be!

Date:

Astronomy

Dec. 31, 1969 Rise Set
Actual Time Sun does not rise Sun does not rise
Civil Twilight Sun does not rise Sun does not rise
Nautical Twilight Sun does not rise Sun does not rise
Astronomical Twilight Sun does not rise Sun does not rise
Moon 10:04 PM MDT (7/25) 8:21 AM MDT (7/25)
Length of Visible Light 24h 00m
Length of Day
24h 00m
Waning Gibbous, 88% of the Moon is Illuminated
Jul 25
Waning Gibbous
Jul 29
Last Quarter
Aug 6
New
Aug 14
First Quarter
Aug 20
Full

Hourly Weather History & Observations

Time (MDT) Temp. Windchill Dew Point Humidity Pressure Visibility Wind Dir Wind Speed Gust Speed Precip Events Conditions
12:00 AM 32 °F - 32 °F 99% 29.50 in - South 19.6 mph - -  
12:00 AM 32.4 °F 20.3 °F 31.8 °F 98% 29.50 in - South 20.7 mph - N/A   Unknown
1:00 AM 31.8 °F 19.3 °F 31.6 °F 99% 29.49 in - South 21.9 mph - N/A   Unknown
2:00 AM 31.5 °F 20.5 °F 31.1 °F 99% 29.49 in - SSW 16.1 mph - 0.01 in   Unknown
3:00 AM 31.5 °F 18.5 °F 31.1 °F 99% 29.48 in - South 23.0 mph - N/A   Unknown
4:00 AM 32.0 °F 19.2 °F 31.6 °F 99% 29.48 in - South 23.0 mph - N/A   Unknown
5:00 AM 31.8 °F 19.0 °F 31.6 °F 99% 29.47 in - South 23.0 mph - N/A   Unknown
6:00 AM 32 °F - 32 °F 100% 29.47 in - South 24.2 mph - -  
6:00 AM 32.2 °F 19.1 °F 32.0 °F 99% 29.47 in - South 24.2 mph - 0.01 in   Unknown
7:00 AM 31.8 °F 19.3 °F 31.8 °F 100% 29.46 in - South 21.9 mph - N/A   Unknown
8:00 AM 32.0 °F 19.2 °F 31.8 °F 99% 29.45 in - South 23.0 mph - N/A   Unknown
9:00 AM 32.5 °F 20.8 °F 32.4 °F 99% 29.43 in - South 19.6 mph - 0.01 in   Unknown
10:00 AM 32.7 °F 19.3 °F 32.5 °F 99% 29.42 in - South 26.5 mph - N/A   Unknown
11:00 AM 32.7 °F 19.1 °F 32.4 °F 99% 29.39 in - South 27.6 mph - N/A   Unknown
12:00 PM 31.8 °F 18.4 °F 31.8 °F 100% 29.38 in - South 25.3 mph - 0.01 in   Unknown
1:00 PM 31.8 °F 17.6 °F 31.8 °F 100% 29.36 in - South 28.8 mph - 0.02 in   Unknown
2:00 PM 31.8 °F 19.0 °F 31.8 °F 100% 29.35 in - South 23.0 mph 29.9 mph 0.01 in   Unknown
3:00 PM 31.6 °F 18.7 °F 31.6 °F 100% 29.35 in - SSW 23.0 mph - 0.01 in   Unknown
4:00 PM 31.8 °F 18.7 °F 31.8 °F 100% 29.34 in - SSW 24.2 mph - N/A   Unknown
5:00 PM 32.5 °F 19.6 °F 32.4 °F 99% 29.35 in - SSW 24.2 mph 31.1 mph 0.01 in   Unknown
6:00 PM 33 °F - 32 °F 93% 29.35 in - SSW 25.3 mph - -  
6:00 PM 32.7 °F 19.6 °F 31.8 °F 96% 29.35 in - SSW 25.3 mph 32.2 mph N/A   Unknown
7:00 PM 32.4 °F 18.4 °F 31.5 °F 96% 29.35 in - SSW 28.8 mph - N/A   Unknown
8:00 PM 32.4 °F 18.4 °F 31.5 °F 96% 29.36 in - SSW 28.8 mph - N/A   Unknown
9:00 PM 31.8 °F 18.4 °F 31.1 °F 97% 29.36 in - SSW 25.3 mph 32.2 mph N/A   Unknown
10:00 PM 31.6 °F 18.1 °F 30.9 °F 97% 29.36 in - SW 25.3 mph 33.4 mph N/A   Unknown
11:00 PM 31.5 °F 17.6 °F 30.7 °F 97% 29.36 in - SSW 26.5 mph 34.5 mph N/A   Unknown